Location: Hohenfelde
(53.8441°N, 9.6220°E)
Time: 11:53:47
(UTC+00:00)

AQUA - Pass Details

Date: 14 July 2020
Orbit: 701 x 704 km, 98.2° (Epoch: 12 August)

Event Time Altitude Azimuth Distance (km) Brightness Sun altitude
Rises 01:24:32 0° 16° (NNE) 3,108 9.1 -10.4°
Reaches altitude 10° 01:26:48 10° 18° (NNE) 2,185 7.9 -10.3°
Maximum altitude 01:31:36 75° 104° (ESE) 735 4.0 -9.9°
Enters shadow 01:36:14 11° 190° (S) 2,121 5.7 -9.6°
